Regional Weather Roundup
Issued by NWS Sioux Falls, SD

Home | Current Version | Previous Version | Text Only | Print | Product List | Glossary On
Versions: 1 2 3 4 5 6 7 8 9 10 11 12 13 14 15 16 17 18 19 20 21 22 23 24 25 26 27 28 29 30 31 32 33 34 35 36 37 38 39 40 41 42 43 44 45 46 47 48 49 50
000
ASUS43 KFSD 210202
RWRFSD

WEATHER ROUNDUP FOR SE SOUTH DAKOTA/SW MINNESOTA/NW IOWA
NATIONAL WEATHER SERVICE SIOUX FALLS SD
900 PM CDT WED AUG 20 2014

NOTE: "FAIR" INDICATES FEW OR NO CLOUDS BELOW 12,000 FEET WITH NO
SIGNIFICANT WEATHER AND OR OBSTRUCTIONS TO VISIBILITY.


SDZ038>040-050-052>070-210300-
SOUTHEAST SOUTH DAKOTA

CITY           SKY/WX    TMP DP  RH WIND       PRES   REMARKS
CHAMBERLAIN    CLEAR     76  72  88 SE10      29.68S
HURON          CLEAR     76  69  79 SE7       29.71R
MADISON        FAIR      72  72 100 SE10G18   29.78R
MITCHELL       MOCLDY    77  72  84 SE10      29.71S
SIOUX FALLS    CLOUDY    73  69  87 SE7       29.77S
WINNER         FAIR      82  69  64 SE9       29.68S
YANKTON        MOCLDY    77  73  88 E8        29.72S
$$

MNZ071-072-080-081-089-090-097-098-210300-
SOUTHWEST MINNESOTA

CITY           SKY/WX    TMP DP  RH WIND       PRES   REMARKS
FAIRMONT       CLOUDY    72  64  78 SE5       29.85R
JACKSON        CLOUDY    72  66  83 SE6       29.84F
LUVERNE        CLOUDY    72  68  88 SE5       29.80S
MARSHALL       CLOUDY    75  68  78 SE10      29.79R
MONTEVIDEO     MOCLDY    73  70  88 SE6       29.81R
PIPESTONE      CLOUDY    72  68  88 SE8       29.81S
REDWOOD FALLS  CLOUDY    77  69  76 S10       29.81R
TRACY          CLOUDY    75  70  86 SE9       29.82R
WINDOM         CLOUDY    72  66  83 SE7       29.84R
WORTHINGTON    CLOUDY    70  12  11 E6        29.84R
$$

IAZ001>003-012>014-020>022-031-032-NEZ013-014-SDZ071-210300-
NORTHWEST IOWA

CITY           SKY/WX    TMP DP  RH WIND       PRES   REMARKS
CHEROKEE       MOCLDY    74  73  98 E5        29.81R
DENISON        PTCLDY    79  75  89 S12G17    29.78R
ESTHERVILLE    CLOUDY    70  68  93 SE8       29.83R
LE MARS        PTCLDY    77  75  94 SE3       29.78S
ORANGE CITY    MOCLDY    73  70  88 E5        29.80S
SHELDON        CLOUDY    72  70  94 SE8       29.79S
SIOUX CITY     MOCLDY    80  75  84 E8        29.76R
SPENCER        CLOUDY    72  69  90 SE8       29.82S
STORM LAKE     MOCLDY    72  72 100 CALM      29.83S
$$

ABBREVIATIONS USED IN REMARKS
   TC - TEMPERATURE IN CELSIUS
  WCI - WIND CHILL INDEX
   HX - HEAT INDEX
  VSB - VISIBILITY



USA.gov is the U.S. government's official web portal to all federal, state and local government web resources and services.